(254741) = 2005 OO18

Discovered at Palomar on 2005-07-30 by NEAT.

Orbit

Orbit type: Main Belt

Note: WebGL enabled browser required.

epoch2023-09-13.0
epoch JD2460200.5
perihelion date2023-08-01.40031
perihelion JD2460157.90031
argument of perihelion (°)157.91121
ascending node (°)166.54499
inclination (°)5.11194
eccentricity0.1610450
perihelion distance (AU)2.2936326
Tisserand w.r.t. Jupiter3.3
ΔV w.r.t. Earth (km/sec)9.7
semimajor axis (AU)2.7339161
mean anomaly (°)9.28822
mean daily motion (°/day)0.21803490
aphelion distance (AU)3.174
period (years)4.52
P-vector [x]0.81401935
P-vector [y]-0.54534880
P-vector [z]-0.19991795
Q-vector [x]0.58046763
Q-vector [y]0.77608153
Q-vector [z]0.24648487
absolute magnitude16.32
phase slope0.15
uncertainty0
referenceMPEC 2024-A34
observations used493
oppositions15
arc length (days)8077
first opposition used2001
last opposition used2023
residual rms (arc-secs)0.69
perturbers coarse indicatorM-v
perturbers precise indicator003Ek
first observation date used2001-11-17.0
last observation date used2023-12-29.0
computer nameMPCLINUX
JD of orbit computation2456937.395672
perihelion JD uncertainty (days)5.1098E-05
argument of perihelion uncertainty (°)3.2297E-05
ascending node uncertainty (°)2.9340E-05
inclination uncertainty (°)5.7988E-06
eccentricity uncertainty 5.3471E-08
perihelion distance uncertainty (AU)1.4974E-07
Minimum Orbit Intersection Distances (in AU)
for orbit epoch: 2460200.5, reference: E2024-A34
Mercury1.88223
Venus1.56966
Earth1.2821
Mars0.91709
Jupiter2.15584
Saturn6.00405
Uranus15.2945
Neptune27.1031

Observations

502 total observations over interval: 2001 11 17.30290 – 2023 12 29.227198
These data are available for download (format description).

Date (UT) J2000 RA J2000 Dec Magn Location Ref
2001 11 17.30290 03 37 57.07 +11 44 05.6 20.0   704 – Lincoln Laboratory ETS, New Mexico MPS 142690
2001 11 17.33295 03 37 55.34 +11 43 59.7 20.3   704 – Lincoln Laboratory ETS, New Mexico MPS 142690
2001 11 17.34775 03 37 54.51 +11 43 55.3 20.4   704 – Lincoln Laboratory ETS, New Mexico MPS 142690
2003 01 28.370220 09 17 46.064 +11 41 04.70 21.05 V 645 – Apache Point-Sloan Digital Sky Survey MPS 142690
2003 01 28.373692 09 17 45.891 +11 41 05.73 21.91   645 – Apache Point-Sloan Digital Sky Survey MPS 142690
2004 04 21.92296 14 03 09.74 -06 35 28.2 19.9 R 599 – Campo Imperatore-CINEOS MPS 142690
2004 04 21.93222 14 03 09.23 -06 35 25.0 19.9 R 599 – Campo Imperatore-CINEOS MPS 142690
2004 04 21.94148 14 03 08.76 -06 35 21.8 19.5 R 599 – Campo Imperatore-CINEOS MPS 142690
2004 04 21.95076 14 03 08.27 -06 35 18.8 19.9 R 599 – Campo Imperatore-CINEOS MPS 142690
2005 07 30.39828 23 24 27.84 -01 47 09.0 18.9   644 – Palomar Mountain/NEAT MPS 138935
2005 07 30.41276 23 24 27.78 -01 47 12.3 19.5   644 – Palomar Mountain/NEAT MPS 138935
2005 07 30.42441 23 24 27.71 -01 47 14.1 19.6   644 – Palomar Mountain/NEAT MPS 138935
2005 07 31.39320 23 24 23.40 -01 49 43.7 19.4   644 – Palomar Mountain/NEAT MPS 138935
2005 07 31.40469 23 24 23.34 -01 49 45.7 19.5   644 – Palomar Mountain/NEAT MPS 138935
2005 07 31.41514 23 24 23.26 -01 49 47.2 19.8   644 – Palomar Mountain/NEAT MPS 138935
2005 08 25.34883 23 14 37.05 -03 56 06.0 18.6   644 – Palomar Mountain/NEAT MPS 139689
2005 08 25.35991 23 14 36.59 -03 56 10.6 19.1   644 – Palomar Mountain/NEAT MPS 139689
2005 08 25.37818 23 14 35.84 -03 56 18.4 18.7   644 – Palomar Mountain/NEAT MPS 139689
2005 08 26.36593 23 13 57.25 -04 03 17.7 19.0 R 699 – Lowell Observatory-LONEOS MPS 139689
2005 08 26.38431 23 13 56.57 -04 03 25.1   699 – Lowell Observatory-LONEOS MPS 139689
2005 08 26.40269 23 13 55.82 -04 03 34.0   699 – Lowell Observatory-LONEOS MPS 139689
2005 08 26.42109 23 13 55.01 -04 03 41.9   699 – Lowell Observatory-LONEOS MPS 139689
2005 08 28.25967 23 12 41.61 -04 16 59.1 19.5 V 691 – Steward Observatory, Kitt Peak-Spacewatch MPS 140241
2005 08 28.27697 23 12 40.86 -04 17 06.6 19.5 V 691 – Steward Observatory, Kitt Peak-Spacewatch MPS 140241
2005 08 28.30103 23 12 39.83 -04 17 17.2 19.4 V 691 – Steward Observatory, Kitt Peak-Spacewatch MPS 140241
2005 08 28.98796 23 12 11.54 -04 22 23.0 17.4 R 185 – Observatoire Astronomique Jurassien-Vicques MPS 140241
2005 08 29.01558 23 12 10.55 -04 22 33.7 17.7 R 185 – Observatoire Astronomique Jurassien-Vicques MPS 140241
2005 08 29.02789 23 12 09.87 -04 22 39.5 18.7 R 185 – Observatoire Astronomique Jurassien-Vicques MPS 140241
2005 08 29.02880 23 12 09.85 -04 22 39.4 18.9 R 185 – Observatoire Astronomique Jurassien-Vicques MPS 140241
2005 09 01.27241 23 09 53.07 -04 46 56.3 19.4 V 691 – Steward Observatory, Kitt Peak-Spacewatch MPS 140241
2005 09 01.28968 23 09 52.28 -04 47 04.3 19.3 V 691 – Steward Observatory, Kitt Peak-Spacewatch MPS 140241
2005 09 01.30704 23 09 51.49 -04 47 12.2 19.3 V 691 – Steward Observatory, Kitt Peak-Spacewatch MPS 140241
2005 09 06.20587 23 06 17.24 -05 24 49.3 18.7 R 699 – Lowell Observatory-LONEOS MPS 141114
2005 09 06.22763 23 06 16.32 -05 24 59.8   699 – Lowell Observatory-LONEOS MPS 141114
2005 09 06.24936 23 06 15.33 -05 25 09.9   699 – Lowell Observatory-LONEOS MPS 141114
2005 09 06.27112 23 06 14.30 -05 25 19.7   699 – Lowell Observatory-LONEOS MPS 141114
2005 09 08.25291 23 04 46.67 -05 40 37.8 18.0   704 – Lincoln Laboratory ETS, New Mexico MPS 141114
2005 09 08.26411 23 04 46.14 -05 40 42.4 18.7   704 – Lincoln Laboratory ETS, New Mexico MPS 141114
2005 09 08.27531 23 04 45.63 -05 40 48.2 18.8   704 – Lincoln Laboratory ETS, New Mexico MPS 141114
2005 09 08.28709 23 04 45.04 -05 40 54.2 18.6   704 – Lincoln Laboratory ETS, New Mexico MPS 141114
2005 09 08.29830 23 04 44.55 -05 40 59.1 18.7   704 – Lincoln Laboratory ETS, New Mexico MPS 141114
2005 09 11.24554 23 02 35.18 -06 03 35.8 19.3 V 691 – Steward Observatory, Kitt Peak-Spacewatch MPS 141728
2005 09 11.26290 23 02 34.38 -06 03 43.8 19.2 V 691 – Steward Observatory, Kitt Peak-Spacewatch MPS 141728
2005 09 11.28367 23 02 33.40 -06 03 53.3 19.3 V 691 – Steward Observatory, Kitt Peak-Spacewatch MPS 141728
2005 09 22.22231 22 55 08.75 -07 22 44.4 19.1 R 644 – Palomar Mountain/NEAT MPS 144012
2005 09 22.24533 22 55 07.84 -07 22 53.7 19.2 R 644 – Palomar Mountain/NEAT MPS 144012
2005 09 22.26726 22 55 06.99 -07 23 02.5 19.2 R 644 – Palomar Mountain/NEAT MPS 144012
2005 09 27.12746 22 52 22.18 -07 53 41.3 19.5 V 691 – Steward Observatory, Kitt Peak-Spacewatch MPS 142690
2005 09 27.14307 22 52 21.65 -07 53 46.9 19.8 V 691 – Steward Observatory, Kitt Peak-Spacewatch MPS 142690
2005 09 27.16146 22 52 21.03 -07 53 53.6 19.7 V 691 – Steward Observatory, Kitt Peak-Spacewatch MPS 142690
2005 10 01.15894 22 50 26.41 -08 16 20.3 19.1   704 – Lincoln Laboratory ETS, New Mexico MPS 144012
2005 10 01.16969 22 50 26.07 -08 16 23.9 19.3   704 – Lincoln Laboratory ETS, New Mexico MPS 144012
2005 10 01.18043 22 50 25.74 -08 16 27.0 19.8   704 – Lincoln Laboratory ETS, New Mexico MPS 144012
2005 10 01.19115 22 50 25.47 -08 16 31.6 19.5   704 – Lincoln Laboratory ETS, New Mexico MPS 144012
2005 10 01.20184 22 50 25.16 -08 16 34.9 19.3   704 – Lincoln Laboratory ETS, New Mexico MPS 144012
2005 10 01.20576 22 50 25.17 -08 16 36.1 19.3 R 699 – Lowell Observatory-LONEOS MPS 144012
2005 10 01.22777 22 50 24.54 -08 16 42.2   699 – Lowell Observatory-LONEOS MPS 144012
2005 10 01.24981 22 50 23.78 -08 16 49.9   699 – Lowell Observatory-LONEOS MPS 144012
2005 10 01.27187 22 50 23.29 -08 16 57.3   699 – Lowell Observatory-LONEOS MPS 144012
2005 10 06.15358 22 48 34.16 -08 40 26.1 19.4 V G96 – Mt. Lemmon Survey MPS 144012
2005 10 06.16021 22 48 34.02 -08 40 28.0 19.4 V G96 – Mt. Lemmon Survey MPS 144012
2005 10 06.16681 22 48 33.87 -08 40 29.6 19.5 V G96 – Mt. Lemmon Survey MPS 144012
2005 10 06.17341 22 48 33.76 -08 40 31.3 19.5 V G96 – Mt. Lemmon Survey MPS 144012
2005 10 29.19327 22 48 23.90 -09 28 03.4 19.9 V G96 – Mt. Lemmon Survey MPS 147497
2005 10 29.19907 22 48 24.01 -09 28 03.3 19.9 V G96 – Mt. Lemmon Survey MPS 147497
2005 10 29.20497 22 48 24.12 -09 28 03.3 20.1 V G96 – Mt. Lemmon Survey MPS 147497
2005 10 29.21057 22 48 24.19 -09 28 03.2 20.0 V G96 – Mt. Lemmon Survey MPS 147497
2008 02 27.25912 11 31 58.65 +03 11 21.2   291 – LPL/Spacewatch II MPS 239438
2008 02 27.26289 11 31 58.47 +03 11 22.4   291 – LPL/Spacewatch II MPS 239438
2008 02 27.27508 11 31 57.89 +03 11 27.2   291 – LPL/Spacewatch II MPS 239438
2008 02 28.29302 11 31 13.11 +03 17 40.4   291 – LPL/Spacewatch II MPS 239438
2008 02 28.30068 11 31 12.78 +03 17 43.5   291 – LPL/Spacewatch II MPS 239438
2008 02 28.30701 11 31 12.49 +03 17 46.0   291 – LPL/Spacewatch II MPS 239438
2008 03 27.18073 11 09 45.33 +06 12 41.6 21.2 V 691 – Steward Observatory, Kitt Peak-Spacewatch MPS 244023
2008 03 27.19996 11 09 44.50 +06 12 47.9 20.5 V 691 – Steward Observatory, Kitt Peak-Spacewatch MPS 244023
2008 03 27.21917 11 09 43.69 +06 12 54.5 20.7 V 691 – Steward Observatory, Kitt Peak-Spacewatch MPS 244023
2008 03 30.18223 11 07 43.27 +06 29 14.2 21.0 V 691 – Steward Observatory, Kitt Peak-Spacewatch MPS 244699
2008 03 30.20146 11 07 42.49 +06 29 21.2 20.5 V 691 – Steward Observatory, Kitt Peak-Spacewatch MPS 244699
2008 03 30.22069 11 07 41.68 +06 29 26.9 20.8 V 691 – Steward Observatory, Kitt Peak-Spacewatch MPS 244699
2008 04 01.18241 11 06 26.06 +06 39 45.0 20.9 V 691 – Steward Observatory, Kitt Peak-Spacewatch MPS 244699
2008 04 01.19879 11 06 25.40 +06 39 49.9 21.2 V 691 – Steward Observatory, Kitt Peak-Spacewatch MPS 244699
2008 04 01.21516 11 06 24.79 +06 39 55.0 21.0 V 691 – Steward Observatory, Kitt Peak-Spacewatch MPS 244699
2008 04 04.19521 11 04 36.68 +06 54 44.2 21.0 V 691 – Steward Observatory, Kitt Peak-Spacewatch MPS 244699
2008 04 04.21177 11 04 36.09 +06 54 49.2 21.0 V 691 – Steward Observatory, Kitt Peak-Spacewatch MPS 244699
2008 04 04.22279 11 04 35.64 +06 54 52.4 20.8 V 691 – Steward Observatory, Kitt Peak-Spacewatch MPS 244699
2008 04 06.13870 11 03 31.00 +07 03 49.1 20.7 V 691 – Steward Observatory, Kitt Peak-Spacewatch MPS 245750
